Location: São Paulo
(23.5507°S, 46.6334°W)
Time: 17:56:24
(UTC-03:00)

X-37B - Visible Passes

Search period start: 01 August 2021 00:00
Search period end: 11 August 2021 00:00
Orbit: 383 x 392 km, 45.0° (Epoch: 01 July)

Date Brightness Start Highest point End Pass type
(mag) Time Alt. Az. Time Alt. Az. Time Alt. Az.
07 Aug 2.3 18:57:42 10° SSW 18:59:28 20° S 18:59:28 20° S visible
08 Aug 2.9 19:35:30 10° WSW 19:36:57 24° WSW 19:36:57 24° WSW visible
09 Aug 0.7 18:37:09 10° SW 18:40:17 54° SE 18:42:22 19° ENE visible
10 Aug 3.1 19:15:57 10° W 19:18:24 20° NW 19:20:28 12° N visible
